Theta_e
328 326 328 327 327 325 327 332 333 337 330 324 329 323 320 324 326 330 333 330 333 335 332 336 336 332 334 335 336 340 339 342 345 345 345 339 332 336 339 339 339 339 340 340 340 340 339 339 338 338 340 337 335 333 332 332 332 329 327 321 323 333 336 336 336 335 334 330 330 333 332 331 331 332 332 331 330 330 330 331 331 331 330 330 329 329 329 329 329 329 329 330 329 328 327 327 325
327 327 328 326 327 324 330 336 336 341 333 320 327 326 321 327 328 333 338 334 335 333 333 339 341 340 341 341 339 338 336 337 338 339 337 333 335 338 339 339 339 339 340 340 340 340 339 339 338 339 340 339 337 335 333 333 333 329 326 321 322 332 334 334 335 334 333 329 328 332 332 330 332 332 331 330 330 330 330 331 331 331 330 330 329 329 329 328 329 329 329 329 328 327 327 326 326
325 327 327 326 328 327 339 339 334 338 331 322 329 331 327 334 337 339 341 335 332 329 334 338 340 340 340 342 338 337 335 335 335 334 334 336 337 338 340 339 339 340 340 340 340 340 339 338 338 339 339 340 338 336 335 335 334 328 325 322 324 331 333 332 334 334 332 329 330 332 332 331 332 331 331 330 331 331 331 331 331 330 329 329 329 328 329 328 328 329 328 328 327 326 326 326 327
324 327 326 327 330 336 355 347 342 341 330 326 326 330 335 344 345 339 339 339 336 331 332 334 338 334 335 342 338 338 338 336 334 333 336 337 337 339 340 339 340 340 339 340 340 340 340 338 338 339 340 340 339 338 335 336 334 327 324 324 328 332 332 332 332 333 331 329 330 331 331 331 331 331 330 330 330 331 330 330 329 329 329 329 328 328 328 328 328 328 328 328 327 326 326 326 328
324 328 324 326 332 339 348 339 343 340 332 332 324 328 339 344 344 339 337 338 339 335 332 336 342 335 335 341 338 341 339 334 333 333 337 337 337 339 339 339 340 340 340 340 340 341 340 339 339 339 340 340 340 339 337 337 333 326 324 327 331 332 332 332 330 331 331 329 329 330 331 330 331 332 331 330 330 330 330 329 329 329 329 329 328 328 327 327 328 328 328 327 327 326 326 328 328
325 328 326 326 327 330 337 334 337 341 342 338 329 335 337 337 340 342 336 331 335 334 332 337 342 341 342 341 336 338 335 333 334 334 335 337 338 339 340 339 340 341 340 340 340 340 340 340 338 339 340 340 341 339 338 337 332 325 324 330 332 333 334 333 331 333 332 331 331 330 330 331 331 331 331 331 330 329 329 329 329 329 329 329 329 328 327 327 327 327 328 327 327 326 325 327 328
324 328 332 334 329 331 344 343 343 348 342 332 333 334 331 337 338 340 335 330 332 329 330 337 341 344 344 339 335 334 333 334 332 333 334 337 339 339 340 339 340 341 340 340 340 340 341 340 338 339 340 341 340 338 337 336 331 323 326 331 331 332 335 335 335 334 332 330 330 329 330 330 330 330 330 330 330 329 329 329 329 329 329 328 328 328 327 326 327 327 327 327 327 325 324 326 326
325 328 334 343 343 343 349 344 347 349 334 327 332 326 328 339 335 336 335 331 331 330 331 335 339 343 340 336 340 336 331 333 332 333 334 337 339 339 340 339 340 340 340 340 340 341 340 340 339 340 340 341 340 338 337 335 331 323 326 332 331 333 334 335 336 333 332 329 328 329 330 330 329 330 330 329 329 330 329 328 327 327 328 327 327 328 327 325 325 327 327 327 327 324 324 325 325
325 327 333 342 340 342 348 343 340 341 338 336 330 324 331 336 331 335 336 330 328 330 332 333 335 335 337 340 345 337 331 333 331 333 335 337 339 339 340 339 339 339 340 340 340 341 340 340 339 340 340 340 339 337 337 334 331 324 325 330 333 334 334 335 335 333 333 329 326 327 328 329 330 329 329 330 330 330 329 328 327 326 327 328 328 328 327 324 324 324 325 326 325 323 323 324 324
327 329 334 342 339 337 340 340 339 339 343 342 331 326 332 333 329 331 332 327 326 330 331 333 337 335 338 345 347 337 333 333 331 334 337 339 338 339 340 339 339 339 340 340 340 340 340 340 339 340 340 340 338 337 336 333 331 326 326 330 332 335 335 336 334 334 335 331 327 325 325 325 327 330 329 329 329 329 329 329 329 327 327 328 327 327 327 326 323 319 320 321 321 322 323 324 324
336 340 340 343 342 339 336 341 348 348 345 338 333 328 327 330 327 328 327 323 325 328 328 329 340 345 342 348 347 335 331 332 332 334 337 339 339 340 340 339 339 338 339 339 339 339 340 340 340 340 339 340 338 337 335 332 330 326 327 330 331 335 335 335 334 335 335 332 329 327 327 324 324 329 330 329 330 329 328 329 329 327 326 327 327 327 326 325 323 319 317 317 319 321 323 323 323
334 344 352 349 341 340 339 345 350 352 349 339 329 323 323 327 325 327 327 323 325 327 329 326 334 345 348 357 347 332 330 332 333 335 338 339 339 340 340 339 339 338 339 339 339 339 339 339 339 339 340 339 338 337 334 331 328 324 325 327 331 334 334 335 334 334 335 333 332 330 329 327 324 326 328 329 329 328 328 328 328 327 326 326 327 327 325 324 323 318 314 315 316 319 321 323 323
338 343 351 342 337 341 338 343 347 349 352 341 325 318 320 326 326 329 329 326 326 326 326 325 333 342 349 354 342 334 332 332 334 336 338 339 339 340 339 339 338 338 338 338 339 339 339 339 339 339 339 339 338 336 334 332 327 323 324 326 330 333 333 335 334 334 335 334 334 332 330 329 326 324 326 329 327 327 328 328 328 328 327 326 326 326 325 324 321 316 313 313 314 316 319 321 322
339 345 346 335 335 342 340 340 343 342 344 340 326 318 319 324 326 329 328 325 327 328 322 322 336 340 339 343 346 350 337 331 336 337 338 339 340 340 339 339 338 338 338 338 339 339 339 339 338 339 339 339 337 335 334 332 327 323 324 324 327 331 333 334 334 334 334 335 334 333 332 330 329 326 325 326 326 326 328 328 327 327 328 327 326 325 325 323 319 316 314 313 313 314 316 318 319
332 345 349 341 337 340 339 336 340 342 340 337 325 318 320 321 325 329 327 326 329 326 320 320 330 327 329 340 347 352 336 330 337 337 338 339 339 340 339 339 339 339 338 338 339 339 339 339 339 338 338 338 336 335 333 332 327 323 324 322 324 330 333 334 334 334 334 335 335 334 332 331 330 328 326 323 322 324 327 328 327 327 328 328 327 326 325 324 320 319 316 313 313 313 314 315 315
333 348 346 341 340 338 338 335 339 341 337 336 327 321 324 322 323 328 324 325 325 323 325 325 324 324 332 337 334 334 330 331 337 338 338 338 339 339 339 339 339 339 338 338 339 339 339 339 339 338 338 337 336 334 332 332 328 324 324 322 321 327 332 333 334 334 334 334 335 334 332 331 330 329 328 324 321 322 325 327 327 327 327 327 327 327 327 325 323 322 319 314 314 314 314 314 314
333 344 344 340 340 339 340 338 337 338 338 338 331 325 326 326 323 322 320 322 326 327 334 333 327 332 339 335 330 329 330 333 337 339 338 338 338 338 338 338 338 338 338 339 339 339 339 338 338 337 337 336 334 332 331 331 329 326 325 324 322 326 331 333 333 334 334 334 334 334 333 332 331 330 328 326 322 320 323 325 327 327 327 327 327 326 326 326 325 325 323 318 316 315 315 315 315
331 338 341 339 341 342 341 343 339 335 335 333 330 326 326 328 326 323 321 325 329 329 335 339 336 335 333 331 330 330 331 335 338 338 338 338 338 338 338 337 337 337 337 338 339 339 338 338 337 337 336 335 333 330 329 329 328 328 327 326 323 324 329 331 332 333 333 333 334 334 333 332 330 330 328 327 325 322 321 322 323 324 325 327 327 327 325 326 326 325 325 323 320 317 316 316 316
334 340 339 337 341 341 339 345 341 333 331 333 332 327 324 326 326 323 324 328 329 329 330 336 341 338 333 331 330 330 332 336 338 338 339 338 338 338 337 337 337 336 336 337 337 338 337 337 337 337 336 335 333 329 327 327 327 327 327 327 324 323 326 329 330 332 333 333 334 334 333 333 331 329 329 328 327 326 325 323 321 321 323 325 326 327 326 325 325 325 325 324 323 321 318 316 316
335 338 338 339 340 338 336 340 340 335 330 331 331 326 324 325 324 322 326 329 327 332 331 331 340 346 345 334 328 329 332 335 337 338 339 338 339 338 338 337 337 336 336 336 336 338 337 337 337 337 336 334 332 328 327 326 326 326 326 326 326 324 324 326 329 330 332 332 334 335 333 332 331 329 328 328 327 327 327 326 324 321 321 323 325 326 326 324 323 325 325 324 323 321 319 316 316
332 333 339 342 337 333 335 337 338 338 330 329 332 328 327 324 322 323 326 329 328 332 331 329 336 347 350 336 328 329 329 333 335 336 337 338 339 338 338 338 337 337 336 336 336 337 338 338 338 337 337 334 331 328 326 326 326 326 326 325 325 325 323 324 326 327 329 331 332 334 335 332 331 330 329 328 328 326 326 327 326 324 322 321 323 324 325 324 322 324 325 324 322 318 317 316 316
332 332 336 340 335 331 335 338 336 336 329 330 334 330 328 322 321 326 326 329 332 332 328 328 329 339 349 338 329 329 328 330 331 333 336 337 338 337 338 338 337 337 336 336 335 336 337 337 338 338 337 335 331 328 327 326 326 326 326 325 324 324 323 323 325 326 326 328 329 331 333 332 331 331 329 328 328 326 326 326 326 326 324 322 321 322 322 322 321 322 323 323 322 318 315 315 316
332 334 333 334 333 332 336 338 335 334 331 332 334 328 327 325 325 327 325 327 332 331 327 325 323 329 338 334 330 331 330 330 329 331 334 335 336 337 337 337 337 336 336 336 335 335 336 337 338 337 337 335 333 329 328 327 327 327 327 327 325 324 323 322 324 325 325 326 327 328 330 330 332 333 330 328 328 327 326 326 325 325 325 324 322 320 320 320 319 319 320 321 321 319 316 315 315
330 334 335 332 330 331 334 336 335 336 334 334 332 326 327 331 329 324 322 326 328 323 320 321 321 325 331 332 332 332 330 329 328 330 332 334 335 335 336 336 337 336 336 336 335 334 334 337 337 337 337 336 334 331 328 328 327 328 328 327 326 324 323 322 322 323 325 325 325 327 328 329 333 334 330 328 328 329 327 326 326 325 325 325 324 322 320 318 317 316 317 318 319 318 317 315 315
330 332 337 334 330 330 331 334 337 337 333 331 328 327 332 333 328 324 324 329 326 321 328 335 331 330 334 336 335 332 331 329 328 330 330 332 333 333 334 334 335 335 335 335 334 334 333 335 337 337 337 336 336 333 330 329 329 329 329 328 327 326 324 323 321 321 322 323 324 326 326 328 331 332 329 327 328 330 329 326 326 326 326 325 324 324 323 321 318 316 315 316 316 317 316 315 314
334 332 335 336 333 332 330 331 336 337 332 329 328 331 337 332 325 327 331 331 326 328 343 349 342 343 340 337 335 332 333 330 328 329 329 330 331 331 332 333 333 333 333 334 333 333 332 333 336 337 337 336 335 333 332 330 330 330 330 330 329 328 326 324 323 321 320 320 322 325 327 326 328 329 328 328 329 331 330 327 326 325 326 326 325 324 324 324 322 320 319 319 320 320 319 319 317
336 333 333 334 334 333 330 330 334 334 331 331 331 333 335 328 324 331 335 331 326 332 349 346 344 354 344 335 334 331 332 331 329 329 329 329 329 329 331 331 333 333 333 333 332 332 332 332 333 336 336 336 335 333 332 331 331 331 331 331 330 329 327 326 325 323 322 320 319 321 325 327 327 327 328 329 330 331 329 327 328 327 325 327 326 324 324 324 324 323 322 323 324 325 324 323 321
335 335 334 336 335 333 330 330 333 330 330 333 331 332 333 325 325 332 333 332 327 329 348 349 347 352 342 335 334 331 330 330 330 330 329 329 329 329 329 330 331 332 333 332 332 332 331 331 331 334 335 336 335 333 332 332 332 332 331 331 331 330 328 328 326 325 324 322 320 318 321 325 327 327 327 328 328 329 328 327 329 329 326 326 326 325 323 323 323 323 323 324 325 326 326 325 323
335 336 337 340 337 336 333 331 333 330 331 334 330 331 333 327 328 332 330 331 329 326 339 349 350 346 339 335 333 332 331 329 330 330 330 330 330 330 329 330 330 330 332 332 332 332 332 331 331 332 334 335 335 334 333 332 332 332 332 331 331 330 329 329 328 327 325 323 321 317 317 321 324 326 326 327 327 327 328 328 330 329 326 326 326 326 324 323 322 322 322 322 324 326 327 326 324
333 334 336 340 338 337 334 333 335 331 332 335 331 332 334 331 330 331 329 328 328 327 331 339 343 341 337 334 333 334 331 329 329 329 330 331 330 330 330 330 329 329 330 330 331 332 332 332 332 332 333 334 334 334 333 332 332 332 331 331 331 331 330 330 330 328 326 324 321 317 316 318 320 322 324 325 326 327 327 328 328 328 327 327 327 327 326 324 323 323 322 322 324 326 327 327 326
333 333 334 337 338 336 333 334 334 332 331 332 332 333 335 336 335 332 328 328 329 329 329 330 333 334 335 334 333 334 331 329 329 330 330 330 330 330 330 330 330 329 329 329 330 330 331 332 333 333 333 333 334 334 334 333 333 332 332 332 331 332 331 331 331 330 328 326 323 320 320 319 319 318 319 321 323 325 326 326 326 326 326 326 326 326 326 325 324 324 323 322 325 326 327 328 327
333 335 336 337 336 334 334 334 333 334 331 326 331 335 335 335 337 336 330 326 328 329 329 328 328 328 329 329 330 332 332 328 328 330 330 330 330 330 330 331 330 330 329 329 329 329 330 330 331 332 333 333 333 333 334 333 333 332 332 332 332 332 332 332 332 331 330 328 326 325 324 323 323 321 319 319 319 320 322 323 324 324 325 325 326 326 326 326 325 326 325 324 326 327 328 328 327
333 334 337 337 335 335 334 331 330 334 332 326 330 335 336 336 334 336 332 326 326 328 328 327 327 326 325 324 324 327 329 328 328 328 329 330 330 330 331 331 330 330 329 329 329 329 328 329 330 331 331 332 333 333 333 333 333 333 332 332 333 333 332 333 333 332 332 330 329 328 327 326 326 325 324 321 319 317 317 319 320 322 323 324 325 326 326 326 326 326 326 325 326 327 327 327 327
333 334 335 335 334 335 333 331 329 331 332 330 329 330 335 340 338 336 331 327 326 326 326 326 326 325 324 323 323 323 324 327 328 325 326 329 330 331 331 330 330 330 329 329 328 328 328 328 329 329 330 331 332 333 333 334 333 333 332 333 333 333 333 333 333 333 332 331 330 329 329 328 327 327 326 324 321 318 317 319 321 322 322 323 325 326 326 326 325 325 324 324 325 326 327 327 327
333 333 335 335 333 333 333 333 330 328 331 333 333 330 330 334 338 336 331 326 325 325 324 325 324 324 324 324 324 323 321 323 323 321 323 326 327 328 328 329 330 330 330 329 329 329 328 328 328 328 329 329 331 332 333 333 333 333 333 332 332 332 332 333 333 332 332 332 331 330 329 328 328 328 327 326 324 321 320 322 324 324 323 323 324 325 325 325 324 325 325 324 324 325 326 327 327
332 332 333 334 333 332 332 333 330 328 331 333 333 331 329 330 332 332 330 328 328 326 323 324 324 324 324 323 323 323 322 321 318 316 318 321 323 324 326 327 329 329 329 330 329 329 329 329 328 328 328 328 329 330 331 332 332 332 332 331 331 331 332 332 332 332 332 331 331 330 329 329 328 328 328 327 326 324 323 323 324 325 325 323 323 324 324 324 324 325 325 326 325 325 326 326 326
331 331 332 333 333 332 331 332 331 328 331 333 332 331 330 330 329 329 329 329 329 327 325 325 324 323 323 323 323 323 322 320 316 315 316 317 318 320 322 324 326 328 329 329 329 329 329 329 328 328 328 327 328 329 330 331 331 331 331 331 331 331 331 330 330 331 331 331 330 329 329 329 328 328 328 328 327 326 324 324 324 325 326 324 323 323 323 324 324 325 326 326 326 326 326 325 325
329 330 332 332 332 332 330 332 333 329 329 332 330 330 330 328 329 329 328 328 327 327 327 326 325 323 322 322 323 323 322 321 318 317 316 316 317 318 318 320 323 325 326 328 329 329 329 329 329 328 328 327 327 328 328 329 329 330 330 330 330 330 330 330 330 330 330 330 329 329 329 329 328 328 328 328 327 327 326 325 325 325 326 325 324 323 323 324 324 325 326 325 326 325 325 325 324
328 329 330 331 331 331 329 329 331 327 328 333 332 331 329 327 329 329 329 328 326 326 327 326 325 324 323 323 323 323 324 324 323 321 317 316 317 318 317 317 319 321 323 325 327 328 329 329 329 329 328 328 327 327 327 327 328 328 329 329 329 329 330 330 329 329 329 329 329 329 329 329 328 328 328 328 328 327 327 326 326 325 325 325 325 324 324 324 324 325 325 325 325 324 324 324 324
327 328 329 330 330 331 331 329 328 327 329 334 333 330 328 327 328 327 326 327 325 326 327 326 326 325 324 324 323 323 324 324 325 323 320 317 316 317 317 317 318 319 320 323 325 326 328 328 329 329 329 328 328 328 327 327 327 328 328 328 329 329 329 329 329 329 329 328 328 328 329 328 328 328 328 328 327 327 327 326 326 326 325 325 325 325 324 324 324 324 324 324 324 324 324 323 323
326 326 326 327 327 329 331 329 327 327 327 328 328 329 329 327 328 326 325 326 325 325 325 325 325 324 324 325 324 324 324 323 324 324 323 320 318 317 318 319 319 318 319 321 322 324 326 327 328 329 329 329 328 328 328 328 328 328 328 328 328 328 328 328 328 328 328 328 328 328 328 328 328 327 327 327 327 327 327 327 326 326 325 325 325 325 325 324 324 323 323 324 323 324 323 323 323
324 325 325 325 326 328 329 328 327 330 331 327 327 332 332 326 328 328 326 326 325 323 324 324 323 323 323 323 323 323 323 324 324 323 323 322 319 318 319 319 318 317 319 321 321 322 324 325 327 328 328 329 329 329 328 328 328 328 328 328 328 327 327 328 328 328 328 328 328 328 328 328 327 327 327 327 327 327 327 327 326 326 325 325 325 325 325 324 324 323 323 323 323 323 323 322 322
324 324 324 324 326 328 328 328 328 330 331 327 327 333 333 328 328 328 327 327 326 324 324 324 323 322 322 322 321 322 322 323 323 323 322 321 318 317 318 319 319 319 321 323 322 320 322 323 324 326 327 328 328 329 329 328 328 328 328 328 328 327 327 327 328 328 328 327 328 328 327 327 327 327 327 326 327 327 327 327 326 326 325 325 325 324 324 324 323 323 323 323 323 322 322 322 322
323 322 326 326 325 327 327 328 329 329 329 327 327 330 333 330 327 327 329 329 327 325 324 324 323 322 322 322 322 322 322 322 323 323 323 322 319 317 318 319 320 321 322 323 322 321 321 321 322 324 326 327 328 328 329 329 328 328 328 328 327 327 327 328 328 327 327 327 327 327 327 327 327 327 327 327 326 326 326 326 326 325 325 325 325 324 324 324 323 323 323 322 323 322 322 322 321
322 323 328 328 325 326 327 328 328 327 328 330 328 328 332 330 325 327 331 329 326 325 324 324 323 323 324 323 323 323 322 322 322 322 323 322 319 318 318 320 321 322 322 322 322 322 322 321 322 323 324 326 327 328 329 329 329 329 328 328 327 328 328 328 328 327 327 327 327 327 327 327 327 326 327 326 326 326 326 326 326 325 325 325 324 324 324 324 323 323 322 322 322 322 322 322 321
324 327 329 328 326 326 327 328 328 326 326 330 328 327 330 329 324 325 328 327 325 324 323 323 323 324 326 325 325 324 323 323 323 323 323 321 319 319 320 320 321 322 322 322 322 321 320 320 320 321 322 324 325 326 328 329 329 329 328 328 328 328 328 327 328 327 327 327 327 327 327 327 326 326 326 326 326 326 326 325 325 325 325 324 324 324 324 324 323 323 323 322 322 321 321 321 321
325 327 327 328 327 325 325 324 325 327 328 328 326 326 329 329 325 323 325 324 323 322 323 323 323 325 326 326 325 325 324 323 323 323 322 319 317 318 319 319 319 320 321 320 320 320 320 320 320 320 321 321 323 324 326 328 329 329 329 328 328 328 328 327 327 327 327 327 326 326 327 326 326 326 326 326 326 326 325 325 325 325 325 324 324 324 323 323 323 323 322 322 322 321 321 321 321
324 326 326 327 326 324 325 322 322 327 329 327 324 324 327 329 326 321 322 322 321 322 322 322 324 326 325 324 324 324 323 323 323 323 323 320 319 318 317 317 318 318 319 318 319 319 319 319 320 320 320 321 322 322 324 326 327 328 329 328 328 328 328 327 327 327 327 326 326 326 326 326 325 325 325 325 325 325 325 325 325 325 324 324 324 324 324 323 323 323 322 322 322 321 321 321 321
324 325 325 327 326 326 327 326 325 327 328 326 324 323 326 327 324 321 324 324 322 323 322 322 324 324 324 324 324 323 323 323 322 323 323 322 322 320 317 316 317 317 317 318 318 319 319 319 319 319 320 320 321 321 323 324 326 327 328 328 328 328 328 328 327 327 327 327 327 326 326 326 325 325 325 325 325 325 325 325 324 324 324 324 324 324 323 323 323 322 322 322 321 321 321 321 321
323 323 325 326 327 329 328 327 327 325 325 325 324 326 326 325 323 322 322 323 324 324 324 323 324 324 323 323 322 323 323 323 322 322 322 322 323 320 316 316 317 316 317 318 318 318 318 318 318 318 319 319 320 320 321 323 324 326 326 327 328 328 328 328 328 328 327 327 327 326 326 326 325 325 325 325 326 325 325 324 324 324 324 324 324 324 323 323 323 322 322 322 322 321 321 321 321
322 321 323 324 325 325 324 324 325 324 325 325 324 326 327 328 329 326 323 323 323 322 322 322 323 324 323 322 322 323 322 321 322 322 322 322 321 316 314 315 316 316 316 316 317 317 317 317 317 317 318 318 319 319 320 321 322 324 325 326 327 328 328 328 328 328 327 327 327 327 326 326 326 325 325 326 325 325 325 324 324 324 324 324 324 324 323 323 323 322 322 322 322 322 321 321 321
321 320 322 323 322 320 319 322 324 324 325 325 324 326 328 328 327 323 322 324 323 322 321 321 322 322 322 322 323 322 321 320 321 321 321 321 317 313 313 314 314 314 315 315 316 316 316 316 317 316 317 318 318 318 319 320 321 322 324 325 326 327 327 328 328 328 327 328 327 327 327 326 326 326 325 325 325 325 325 324 324 324 324 324 324 323 323 323 322 322 322 322 322 322 321 321 321
320 321 322 322 321 320 319 321 322 322 322 323 324 327 327 325 323 320 319 322 323 323 323 321 322 321 321 322 321 320 320 319 319 320 319 319 316 312 312 312 312 313 314 314 315 315 315 315 315 316 316 316 317 318 318 319 320 321 322 324 325 326 327 327 327 328 327 327 327 327 327 326 326 326 326 326 325 325 325 324 324 324 324 324 324 324 323 323 323 322 322 322 322 322 321 321 321
322 322 321 320 320 321 321 321 321 320 321 322 323 325 324 323 325 323 320 320 321 322 323 322 322 322 321 321 320 319 319 319 319 318 317 318 316 311 310 312 313 313 314 314 315 316 315 315 315 315 315 316 316 317 317 318 318 320 321 322 324 325 326 327 327 327 327 327 327 327 327 327 327 326 326 326 326 325 325 325 324 324 324 324 324 324 323 323 323 322 322 322 322 322 321 321 321
319 319 320 320 320 321 321 320 322 322 321 320 319 320 320 321 323 323 321 320 319 319 321 322 321 322 321 319 319 318 318 318 318 317 316 318 317 311 309 312 313 314 314 314 315 315 315 316 315 315 315 315 316 316 316 317 318 318 319 320 322 324 325 326 326 327 327 327 327 327 327 327 327 327 326 326 326 325 325 325 324 324 324 324 324 324 323 323 322 322 322 322 322 322 321 321 321
317 318 320 320 319 320 322 320 320 322 321 320 319 317 317 317 317 317 317 316 315 317 321 323 322 321 320 319 319 318 318 317 317 317 319 322 320 312 310 313 313 313 314 314 314 315 315 316 316 315 315 315 315 315 315 316 317 318 318 319 320 322 323 325 325 326 327 327 327 327 327 327 327 327 326 326 326 325 325 325 325 325 324 324 324 323 323 323 323 322 322 322 322 322 321 321 321
319 319 320 320 318 319 322 320 319 320 319 318 319 317 316 318 318 315 316 314 313 316 321 323 323 321 319 319 318 318 319 319 319 321 323 325 321 311 309 312 312 312 313 314 315 315 315 316 315 315 315 314 315 315 315 316 316 317 318 318 319 320 322 323 324 325 326 326 327 327 327 327 327 327 326 326 326 325 325 325 325 325 324 324 324 324 323 323 322 322 322 322 322 322 321 321 321
318 318 318 319 318 318 320 319 319 321 319 317 318 315 318 326 323 314 313 315 314 317 319 319 319 319 318 318 318 319 321 322 324 324 322 324 320 311 308 310 310 311 313 314 315 315 315 315 315 314 313 313 314 315 315 316 316 316 317 317 318 319 320 321 323 324 325 326 326 326 327 326 326 327 326 326 326 326 325 325 325 325 324 324 324 324 324 323 323 322 322 322 322 322 322 321 321
Wind_Speed
20 21 22 22 17 6 2 4 2 3 3 2 2 0 2 2 1 2 2 2 1 2 2 2 3 5 3 2 6 6 4 5 5 4 3 4 5 21 17 15 25 25 28 27 25 24 23 22 20 18 15 13 13 12 10 8 6 4 4 6 12 12 8 8 8 7 6 6 7 8 8 9 9 9 10 9 9 9 9 10 10 11 11 11 11 11 11 12 12 12 12 11 11 11 11 10 10
20 21 22 18 11 4 1 3 3 4 4 1 2 2 3 1 0 4 6 4 3 1 1 4 4 4 4 3 4 4 1 2 4 3 2 3 13 19 12 17 27 26 29 27 25 25 23 23 20 18 15 13 12 11 10 8 6 4 5 6 11 14 10 8 8 7 6 6 8 9 7 9 10 9 9 9 9 9 9 9 10 10 10 11 11 10 11 11 12 11 11 10 10 10 10 10 10
20 20 21 15 6 3 1 3 2 1 4 1 4 3 1 1 4 6 7 6 4 1 2 3 4 4 3 3 1 2 1 2 2 1 0 10 14 15 13 19 27 27 29 27 26 24 24 23 20 19 15 13 12 11 10 8 6 4 6 6 11 13 11 10 9 8 7 7 9 10 8 9 9 8 9 9 8 8 9 9 9 9 10 10 10 10 11 11 11 11 10 9 10 10 10 9 10
19 18 18 10 3 4 4 4 2 3 2 2 3 4 3 4 7 6 6 6 4 0 1 0 2 1 2 0 1 1 1 2 3 4 3 12 13 16 18 21 27 27 28 27 26 24 24 24 21 19 16 14 11 11 10 7 5 5 6 7 11 12 11 10 10 9 8 8 9 10 9 9 8 8 9 8 8 8 8 8 9 9 9 10 10 10 10 11 10 10 9 9 9 9 9 9 9
17 13 12 5 2 2 3 3 2 3 1 4 1 4 5 6 6 5 4 5 4 3 2 1 1 1 1 1 1 1 2 1 3 6 7 13 14 18 19 22 27 26 27 26 25 25 24 24 22 20 17 14 12 11 10 7 5 6 8 9 12 12 11 10 10 10 8 8 9 10 10 9 9 8 8 8 8 8 8 7 8 9 9 9 9 9 10 10 10 10 9 8 8 8 9 9 9
15 9 7 6 3 1 2 2 1 1 4 5 2 5 5 6 6 5 2 4 2 3 4 2 1 2 1 1 1 2 2 1 4 6 10 16 16 20 21 23 26 25 27 25 25 25 24 24 22 21 18 15 13 11 10 8 6 8 9 10 12 12 11 12 12 10 9 8 8 10 11 10 9 8 8 8 7 7 8 7 8 8 8 9 9 9 9 10 10 9 9 8 7 8 9 9 9
12 6 4 5 2 1 3 2 3 3 4 5 4 5 5 6 5 5 2 1 2 2 2 2 1 5 1 1 0 1 0 2 5 3 12 19 18 21 22 24 25 24 25 24 25 24 24 23 22 21 18 16 14 12 11 9 8 10 10 10 13 13 12 13 13 10 8 8 8 9 10 11 10 9 9 7 7 7 7 7 7 8 8 8 8 8 8 9 9 9 8 7 6 8 9 9 9
9 4 1 3 2 3 4 1 3 3 2 3 4 5 5 6 5 6 4 2 1 2 1 2 2 4 1 1 1 2 2 3 5 2 12 20 20 23 22 24 25 24 25 24 24 24 23 22 22 20 18 17 15 13 11 10 10 11 11 10 11 12 12 12 11 9 8 8 8 9 9 11 10 10 9 8 8 7 6 7 7 7 8 7 7 8 7 9 9 9 8 7 7 8 9 9 8
6 3 1 3 2 2 2 2 3 3 3 4 4 5 4 5 4 5 5 2 1 2 2 4 3 2 2 2 1 3 2 2 5 5 15 20 22 24 23 24 25 26 26 24 24 23 23 22 22 20 18 17 16 14 12 12 11 12 12 12 11 11 11 11 11 9 8 8 8 9 9 11 11 9 9 9 8 7 6 6 6 7 7 6 7 7 7 8 8 9 9 7 8 10 9 8 8
5 4 1 2 2 1 2 2 2 2 4 5 5 7 4 5 4 3 5 3 1 3 3 2 2 1 3 3 2 1 2 2 8 10 17 21 22 24 23 25 25 27 27 26 24 23 23 22 22 20 19 17 16 15 12 12 12 13 13 13 14 12 12 12 11 10 10 10 8 7 6 9 12 10 9 9 8 8 7 7 6 6 7 6 6 6 6 7 7 10 11 10 11 11 10 8 8
2 4 2 3 3 1 1 3 3 4 5 5 5 5 5 5 5 2 1 2 1 2 1 0 2 2 2 1 2 0 1 4 11 16 20 21 23 24 23 24 25 26 27 26 25 24 23 22 22 20 19 17 17 15 13 12 12 13 13 14 15 14 13 12 12 11 11 11 8 7 5 6 10 11 10 10 10 8 7 7 7 6 6 6 6 6 6 6 6 9 11 12 12 11 11 9 8
1 3 4 3 1 2 3 2 4 6 6 4 3 3 3 6 4 2 2 2 1 1 3 3 2 4 3 3 3 1 0 8 12 16 21 22 23 23 23 24 24 25 25 25 25 25 24 23 22 21 20 19 17 15 13 13 11 13 14 14 15 14 13 13 12 12 13 12 10 8 6 5 7 10 11 11 11 10 8 7 7 6 7 7 7 6 6 6 6 8 10 12 12 12 12 11 10
2 1 4 1 3 2 3 2 4 5 6 2 1 4 2 6 3 5 5 1 1 3 5 6 3 3 2 3 3 3 3 11 13 17 22 22 24 23 23 23 23 24 24 25 26 25 25 24 23 22 21 20 18 16 14 13 12 13 15 16 16 16 15 14 13 13 13 13 12 10 8 6 5 7 10 11 12 11 10 9 9 7 7 8 8 7 7 7 7 8 10 11 13 13 13 12 11
3 2 4 1 0 2 3 1 2 1 3 4 2 3 1 3 4 5 6 2 4 5 3 4 5 3 2 2 4 4 5 13 15 19 21 22 24 23 23 23 23 24 24 25 26 25 25 25 24 23 22 21 19 18 16 14 13 13 16 17 18 18 17 16 15 14 14 14 14 12 10 8 7 7 9 12 13 13 11 11 11 9 8 8 8 8 8 8 8 8 9 11 13 13 14 13 13
3 2 4 2 1 1 2 1 2 3 2 5 2 1 1 1 3 4 6 5 6 4 1 1 4 2 2 4 3 5 9 17 18 20 22 22 23 22 22 22 22 23 24 25 26 26 26 25 24 23 23 22 20 19 18 16 14 14 17 17 18 20 19 17 17 15 15 15 15 14 12 10 9 8 8 10 12 14 13 12 12 11 9 9 9 8 8 8 8 8 9 10 11 12 13 13 13
3 3 4 1 1 1 3 2 2 3 2 5 3 1 1 3 3 3 5 4 2 1 2 1 2 0 3 6 3 5 12 20 20 21 22 21 21 21 21 22 22 23 24 25 26 26 26 25 24 24 23 23 21 21 20 18 16 15 17 16 17 21 21 18 18 17 17 16 16 16 14 12 10 9 8 9 11 13 14 13 13 13 11 10 10 10 9 9 9 8 9 9 10 11 11 12 12
3 3 3 1 3 3 3 3 3 2 3 4 4 1 3 4 1 2 1 3 2 1 2 2 1 1 3 4 6 2 18 22 22 23 21 21 20 20 20 21 22 23 25 26 27 27 26 26 24 24 24 23 23 22 21 20 18 17 17 16 16 21 22 20 18 18 17 17 17 17 16 15 13 11 10 10 11 13 14 14 15 15 14 12 12 12 11 11 10 10 10 9 10 10 10 11 11
2 3 3 3 4 4 5 6 5 3 1 3 3 1 5 1 3 2 1 3 2 1 2 2 3 2 2 4 2 12 23 23 24 24 22 22 20 20 21 22 23 24 26 27 28 28 27 27 25 25 25 24 24 23 22 21 19 18 18 17 16 20 23 21 19 19 18 17 17 18 18 17 15 13 12 11 11 12 13 14 15 15 16 14 13 13 13 13 12 11 10 10 10 11 11 11 11
2 3 3 4 5 5 6 6 5 2 1 3 2 1 3 3 3 2 1 3 4 0 4 4 5 5 2 3 8 18 22 24 25 24 24 24 24 25 24 24 24 25 27 28 29 30 29 28 27 26 25 25 25 24 24 22 21 20 19 19 17 19 21 23 21 20 19 19 18 19 19 18 17 15 14 13 12 11 12 13 14 15 16 16 15 15 15 14 13 13 13 12 11 12 13 12 12
3 3 3 6 6 4 5 5 6 5 3 2 1 1 1 2 2 1 2 1 3 4 5 2 4 7 2 2 10 16 18 21 21 22 24 25 25 26 27 26 27 28 29 28 29 30 30 29 28 28 26 26 26 26 25 24 23 21 21 20 20 19 20 23 23 21 20 20 19 21 22 21 19 17 16 15 15 14 13 13 13 15 17 18 18 17 18 17 15 15 15 15 14 14 15 14 13
2 4 5 6 5 4 6 7 7 5 4 2 1 1 3 2 1 1 5 4 2 6 7 7 8 8 6 4 8 13 15 16 17 19 21 24 23 23 27 29 30 30 28 27 29 31 32 31 30 29 28 28 28 27 26 25 24 23 22 21 21 21 21 22 23 23 22 22 21 22 24 21 21 21 18 18 18 17 16 15 14 15 16 18 20 20 20 20 18 17 17 18 18 17 17 16 15
2 4 6 5 6 5 6 7 7 4 3 2 1 1 2 1 1 3 7 5 5 7 6 8 9 7 8 8 10 11 11 12 15 17 19 23 24 23 25 27 26 26 25 27 30 32 33 32 31 30 29 29 29 29 27 26 25 25 24 23 23 23 23 24 24 24 24 24 24 23 23 20 22 25 21 20 21 20 19 18 17 16 17 19 20 22 22 22 20 20 20 20 20 20 19 18 17
2 4 5 5 7 5 4 6 7 5 5 4 2 1 1 2 2 3 7 7 7 6 6 6 7 8 9 10 11 10 10 11 15 19 21 24 26 26 25 26 26 26 27 29 30 31 33 33 33 32 31 31 31 30 28 28 27 26 25 24 24 24 25 25 25 25 25 26 25 25 25 24 26 27 22 21 23 23 21 21 20 19 19 19 20 22 23 23 22 22 23 23 22 22 21 19 18
3 4 5 6 8 6 5 6 6 7 6 6 3 1 1 3 3 1 5 9 9 6 5 3 4 9 11 9 10 11 12 14 19 24 25 26 29 30 28 27 27 26 26 28 29 30 33 34 34 34 33 33 32 31 30 30 29 28 27 26 27 26 26 27 27 26 26 27 26 26 26 27 28 26 23 24 25 26 24 23 22 21 22 21 20 22 23 23 23 23 24 24 24 24 23 22 20
4 5 5 4 5 6 6 4 5 6 5 3 3 1 6 7 4 2 6 10 9 5 2 2 5 8 8 9 11 11 11 14 18 21 24 25 25 25 25 25 25 25 27 29 29 30 33 34 35 35 35 34 33 33 33 32 31 30 29 29 28 28 28 28 27 27 28 28 28 28 28 29 30 29 27 27 27 29 27 25 24 24 25 25 23 22 23 23 23 23 23 24 24 24 24 24 23
5 6 5 4 3 4 4 5 6 5 3 3 3 6 8 5 3 2 8 9 5 2 3 5 6 7 7 8 10 11 10 13 17 20 23 24 22 22 24 26 25 28 31 30 29 31 32 33 36 37 37 35 34 34 35 34 33 33 32 31 30 29 29 29 28 29 29 30 30 30 30 30 32 33 30 28 29 31 29 27 27 26 27 28 26 24 24 23 23 23 23 23 23 24 24 24 24
3 5 5 7 5 1 3 6 7 3 2 5 6 9 7 1 3 3 7 7 5 6 4 4 6 7 9 8 8 10 11 15 19 18 17 19 21 24 27 27 30 33 31 29 32 32 30 31 35 37 37 36 36 36 36 36 36 36 34 33 32 31 31 30 30 31 31 31 31 31 32 31 32 32 31 30 31 32 31 31 30 28 28 29 29 27 26 25 25 25 24 24 24 25 25 24 25
2 3 3 8 8 5 3 3 5 2 2 6 7 8 5 2 2 6 8 4 5 7 5 5 6 7 8 8 8 8 10 16 17 14 15 20 25 27 28 31 34 33 32 34 33 30 29 31 33 35 36 37 37 37 38 38 38 37 36 35 34 33 32 31 31 32 33 33 32 32 33 33 33 32 32 32 32 32 32 32 32 31 30 30 31 31 28 28 28 27 27 26 26 27 27 26 26
1 4 2 7 8 9 7 4 4 5 3 5 6 5 8 4 5 10 10 4 4 5 6 6 7 7 6 7 7 6 10 13 13 15 22 26 27 27 29 35 35 33 35 35 31 30 31 31 31 33 34 36 38 38 38 39 39 38 37 37 36 34 33 33 33 33 33 34 34 34 34 34 35 35 34 34 33 33 32 33 34 34 33 32 32 32 31 30 29 29 28 27 27 29 30 29 27
2 3 2 3 5 9 8 6 6 7 5 6 6 5 9 7 9 11 9 6 4 3 6 7 7 7 6 6 6 7 10 11 13 22 29 29 28 27 30 35 33 34 35 31 31 33 33 32 32 32 33 36 38 38 39 39 39 38 38 38 37 36 35 35 35 34 34 34 35 35 34 34 36 36 36 36 35 35 35 35 36 35 34 33 33 33 32 31 31 31 29 27 28 29 32 31 29
2 2 2 3 5 6 4 6 9 7 5 6 7 7 8 6 8 11 8 7 8 7 9 8 7 7 7 6 7 8 9 13 19 26 29 29 28 28 31 34 32 33 33 32 34 35 33 33 33 33 34 36 37 39 40 40 39 39 39 38 38 38 37 37 37 36 36 35 35 35 35 35 35 36 37 37 37 37 37 38 38 37 34 33 34 34 33 32 32 33 31 29 30 31 32 33 31
2 4 4 5 7 4 2 3 11 10 4 6 8 6 6 6 8 9 7 6 8 10 11 10 9 9 8 7 8 8 9 13 20 24 28 28 27 28 32 34 33 33 34 35 36 34 33 34 34 34 35 36 37 39 39 39 39 39 39 39 39 39 39 39 39 38 38 37 36 37 37 36 36 36 36 37 38 39 39 39 39 37 34 33 34 34 34 33 33 34 32 31 33 33 33 33 33
3 6 6 6 7 4 2 3 7 10 4 5 9 6 2 5 8 9 7 8 9 10 11 11 11 10 9 7 7 7 7 9 13 20 27 29 29 31 33 35 36 35 36 37 36 34 35 35 34 36 36 37 37 37 38 38 39 39 39 39 39 39 40 41 41 40 40 40 39 39 39 38 37 36 36 37 38 40 40 40 40 37 34 33 33 33 33 33 33 33 33 32 33 33 33 33 33
7 6 5 6 6 5 4 2 2 5 5 5 8 8 6 5 7 8 7 7 9 9 11 12 11 9 8 7 6 6 7 7 9 16 26 30 31 34 35 37 37 36 37 37 36 36 36 35 35 36 37 37 36 36 37 37 38 38 38 38 39 40 41 42 42 41 42 42 42 42 41 40 39 38 37 37 38 40 40 40 39 36 33 32 33 34 34 34 34 34 34 33 33 33 34 33 33
7 7 5 5 5 5 6 4 2 4 5 5 7 10 11 8 8 9 7 5 7 9 10 10 9 8 7 6 6 6 7 8 12 19 25 28 31 33 35 36 35 35 35 36 36 35 34 34 34 36 36 36 36 35 35 35 35 36 36 37 37 39 41 42 42 43 44 44 44 44 43 41 41 40 39 38 38 39 40 40 39 36 33 33 33 34 34 34 34 35 34 33 33 34 34 34 33
4 8 8 7 5 5 4 4 4 4 3 6 10 12 10 10 10 11 10 5 7 9 8 7 8 7 7 7 7 8 8 9 15 21 21 23 28 31 32 33 33 33 33 34 34 34 34 35 35 36 36 36 36 34 33 33 33 35 35 35 36 40 42 42 42 43 43 44 45 44 43 43 42 42 41 40 39 39 40 40 39 37 35 34 34 36 37 36 34 34 33 33 32 32 33 33 33
5 3 3 7 7 7 4 3 5 2 2 6 10 12 11 10 10 11 13 9 7 7 7 7 8 8 8 9 9 9 9 10 15 18 18 20 26 28 28 28 28 29 31 33 33 35 36 37 36 37 37 36 35 35 35 35 36 35 34 36 40 41 41 40 41 43 44 44 44 42 42 43 42 42 42 42 41 41 41 40 40 39 37 36 37 38 38 35 33 33 32 32 32 32 32 31 30
9 2 2 5 8 8 4 4 6 2 3 6 5 8 12 9 7 8 10 11 10 8 8 9 10 9 8 8 10 10 8 8 11 14 17 20 23 26 26 25 25 27 31 32 33 36 37 36 38 38 37 35 37 38 38 39 40 38 37 40 42 41 40 40 42 43 43 43 42 41 42 43 43 43 44 43 42 42 42 41 41 40 39 38 38 38 37 35 34 33 32 31 31 32 32 29 27
9 4 4 5 3 3 2 2 4 2 3 5 3 7 11 8 7 9 9 11 12 9 10 11 11 11 10 8 9 10 9 9 10 12 15 18 22 24 23 23 26 29 31 31 32 35 35 34 37 38 36 36 39 40 40 42 43 41 41 41 39 38 38 39 40 40 40 40 40 41 43 43 44 45 44 44 43 43 43 42 42 40 39 39 38 38 37 36 35 33 32 32 30 29 29 28 27
8 7 7 7 3 2 2 2 2 4 5 4 2 6 9 6 7 8 9 11 12 9 10 11 10 12 13 12 10 10 11 11 12 11 12 15 19 21 21 24 27 28 29 30 32 34 35 36 38 38 37 38 40 40 42 44 41 39 40 39 36 34 33 33 34 36 37 37 39 41 43 45 45 44 44 44 44 44 43 43 42 41 40 39 38 38 38 37 36 35 33 33 30 27 27 27 27
11 11 11 11 7 3 1 2 1 2 4 2 2 6 9 8 9 9 7 8 12 12 11 10 11 12 12 12 11 11 11 11 12 13 12 11 14 19 23 25 25 26 29 32 34 34 34 35 37 37 36 38 40 41 42 41 37 35 34 33 31 29 29 29 30 34 36 37 40 43 45 45 44 44 43 43 44 44 44 44 43 42 41 39 38 39 39 38 37 36 34 33 33 32 28 25 24
10 12 14 15 10 5 2 1 1 2 5 3 2 5 10 9 10 10 7 8 11 12 13 15 14 12 11 11 11 11 10 10 11 13 13 11 14 19 23 24 24 25 30 34 35 34 32 33 34 35 35 37 38 40 40 37 35 35 32 30 30 29 29 32 36 39 38 39 43 44 43 42 42 43 43 43 44 44 45 44 44 43 42 40 40 39 40 40 38 37 36 35 36 35 31 26 25
8 9 13 14 9 9 8 4 3 4 5 2 3 5 10 9 9 10 7 9 14 13 14 19 17 12 11 11 11 11 10 11 11 12 13 12 14 16 20 24 25 27 32 33 32 31 31 32 34 34 35 36 38 38 37 35 35 36 35 35 36 34 33 37 43 43 39 40 41 40 39 39 41 42 42 43 43 44 45 45 44 43 42 42 40 40 42 42 39 37 36 36 37 35 32 30 30
8 5 9 11 12 14 12 6 4 5 3 2 1 5 7 11 12 8 8 10 13 13 16 19 16 12 12 11 10 11 11 12 12 13 14 14 14 15 19 25 28 30 32 31 30 31 31 32 33 33 33 35 37 36 35 35 36 37 38 38 38 38 39 43 44 39 36 37 36 37 38 38 40 40 42 43 44 44 45 45 45 43 43 42 41 42 44 43 39 37 36 36 36 35 34 35 33
8 4 9 10 13 13 10 6 6 5 4 5 5 5 5 12 13 5 6 10 13 14 16 17 15 12 10 11 11 11 12 12 12 13 14 14 15 18 21 26 29 31 31 31 32 32 31 30 30 30 31 33 34 35 35 35 37 39 39 38 38 40 42 45 43 35 32 34 34 36 37 37 39 40 42 43 44 45 45 46 45 43 44 44 43 44 45 43 40 39 38 36 37 37 36 37 35
5 6 6 2 4 7 7 7 7 5 5 8 9 9 7 12 13 6 3 9 14 12 11 13 14 11 9 10 11 11 11 10 11 11 12 14 17 21 22 24 28 30 31 32 31 30 28 28 28 29 31 32 34 34 35 36 38 39 39 39 40 41 42 42 40 35 32 32 33 35 36 38 39 40 42 42 43 44 45 45 45 44 45 45 45 45 44 43 42 42 40 39 38 37 38 38 38
5 7 4 3 3 2 2 3 4 6 7 11 14 16 12 11 14 10 7 10 11 8 8 10 10 9 9 9 9 10 10 9 9 9 10 13 19 24 23 23 27 30 31 30 28 28 27 28 28 29 32 33 34 35 35 37 39 40 41 42 43 44 43 40 37 35 35 34 34 36 38 38 38 39 40 40 41 43 44 45 45 46 47 46 45 45 45 45 44 43 40 39 39 39 39 38 39
6 6 5 1 0 1 0 1 3 6 8 12 17 18 15 12 14 8 6 10 11 8 9 10 9 10 11 10 9 10 10 9 9 8 8 10 14 19 21 23 27 29 28 27 27 28 28 29 28 30 33 34 34 35 36 38 39 40 43 44 44 45 44 41 38 38 38 36 37 39 38 36 36 37 37 38 41 43 43 44 44 46 46 46 46 46 46 45 43 41 39 39 40 40 40 38 38
6 5 6 5 4 4 5 4 4 6 7 8 11 14 13 12 16 13 7 9 10 8 9 10 11 12 10 10 11 10 9 9 9 8 8 8 10 12 15 20 24 24 24 24 25 26 28 29 28 30 34 35 35 36 37 38 39 41 42 44 45 46 45 43 41 41 41 39 39 39 38 37 35 35 37 39 43 44 44 44 45 46 46 47 47 46 46 45 42 40 39 40 40 40 41 40 40
9 7 7 8 5 5 7 6 6 8 9 8 6 10 9 7 11 18 18 15 11 9 9 10 10 11 10 10 10 8 8 9 8 8 8 9 9 10 13 19 21 20 22 22 22 23 25 27 28 30 34 35 34 35 37 37 39 41 42 44 46 45 45 44 44 43 43 42 40 40 40 39 37 37 40 42 44 44 43 44 44 45 46 46 46 46 45 44 41 40 40 40 41 42 41 39 40
10 7 6 7 6 6 7 6 6 7 5 4 3 6 6 5 6 10 13 11 11 14 13 8 8 9 8 7 6 7 8 8 7 8 9 10 11 13 15 19 20 19 19 20 21 23 25 28 30 31 34 36 34 35 36 37 39 41 42 44 45 45 45 45 44 45 44 43 42 41 41 41 40 40 42 42 43 41 41 42 42 43 44 44 44 44 44 43 41 40 40 41 41 41 40 39 41
6 5 7 9 8 8 6 2 3 2 2 1 3 4 4 4 6 7 7 5 6 12 13 10 10 9 7 6 7 8 8 7 8 8 10 12 13 14 16 18 19 18 18 20 23 25 27 30 32 33 35 36 36 36 36 37 39 40 41 43 44 44 44 43 43 44 44 45 45 43 42 41 40 40 40 40 40 40 41 41 41 42 43 43 43 43 43 42 41 40 40 41 42 41 39 39 41
4 5 8 6 4 6 6 4 2 2 4 3 4 4 3 3 7 9 10 6 4 7 8 8 10 8 7 8 10 9 8 8 8 9 11 12 11 13 15 15 16 18 20 23 26 27 28 29 31 32 34 35 36 37 37 38 38 38 40 41 42 43 44 44 45 45 45 45 45 43 41 40 40 40 40 40 40 40 40 39 40 41 42 42 42 42 42 42 41 40 41 41 43 42 39 39 41
5 8 10 3 3 2 2 3 3 4 7 5 5 6 4 5 6 7 9 9 7 8 7 6 7 7 7 9 10 11 9 9 10 10 11 10 8 10 13 15 18 21 23 25 26 26 27 28 29 30 32 34 35 36 37 38 37 37 39 40 42 43 44 45 46 46 45 43 43 42 41 40 41 41 41 41 40 39 39 39 40 40 41 41 41 42 42 41 40 39 40 42 43 41 38 38 40
2 5 8 5 1 3 5 4 4 6 7 6 8 10 6 6 5 4 8 11 9 8 7 6 7 7 8 9 11 11 10 9 9 8 7 7 7 10 14 19 21 22 22 23 24 24 25 27 27 28 30 32 33 34 36 37 36 37 38 40 41 42 44 44 45 45 43 42 43 43 41 41 42 41 41 40 40 38 38 39 40 40 40 41 41 41 41 40 40 40 40 42 42 41 38 38 40
0 2 4 3 3 5 7 5 3 6 7 6 9 10 7 7 7 7 12 16 12 6 5 7 10 10 10 10 10 10 10 9 7 5 5 7 9 13 17 19 18 18 20 21 22 23 24 26 26 27 29 29 30 31 33 35 36 37 38 39 40 40 41 42 43 43 42 43 44 43 42 42 41 40 40 40 39 38 38 39 39 40 40 40 40 40 40 40 39 40 40 41 41 40 38 39 40
4 4 5 5 4 1 2 3 3 5 6 5 7 8 5 4 5 9 14 17 14 7 8 9 10 12 12 11 11 9 7 7 6 5 7 8 9 13 16 15 15 16 19 20 21 22 23 25 26 27 28 28 29 29 29 31 34 35 36 37 37 37 38 39 41 41 41 43 43 42 42 42 41 40 39 39 39 39 39 39 39 40 40 40 40 39 39 39 39 39 40 41 41 39 38 39 39
8 6 7 8 7 4 2 5 4 3 5 6 7 8 6 4 4 7 10 12 9 5 7 9 9 11 11 10 9 7 5 6 7 6 7 7 7 9 12 14 14 15 18 20 20 21 23 25 27 27 27 28 28 27 28 29 31 32 34 35 35 36 36 37 38 39 40 42 42 42 42 40 40 40 39 38 39 39 39 39 39 40 40 40 40 40 39 39 39 39 40 40 40 39 38 38 38
Wind_Direction
337 339 339 335 334 341 4 52 83 319 78 85 308 208 245 198 149 166 194 282 290 248 206 136 144 141 122 155 176 175 156 166 170 143 207 268 158 160 159 164 163 161 165 164 165 163 165 169 169 169 169 170 168 167 168 166 160 162 156 162 163 156 158 154 145 146 142 134 129 132 132 132 133 132 128 124 123 120 117 115 113 110 108 108 109 108 107 110 108 109 108 100 94 96 93 87 94
339 337 338 334 335 357 310 75 94 332 56 66 276 187 254 306 176 194 188 204 219 264 99 120 115 94 65 74 123 120 140 227 184 161 252 143 146 161 165 168 164 163 165 164 166 165 167 170 171 171 172 174 176 175 171 170 163 171 171 164 163 158 164 169 157 159 160 149 140 140 141 138 140 137 131 129 127 123 122 118 115 113 114 113 111 111 113 115 113 115 113 103 102 101 92 87 90
340 336 339 336 340 40 49 45 84 44 74 182 265 252 249 143 213 223 202 204 232 279 59 115 101 76 53 35 98 110 187 267 186 155 174 147 153 169 170 169 166 165 166 165 167 168 169 172 173 173 175 178 181 182 174 172 169 177 177 166 164 158 162 169 164 168 171 152 143 148 145 140 142 139 136 135 132 128 125 122 121 120 119 117 115 117 118 120 119 121 117 110 111 104 96 92 86
341 339 340 344 5 37 58 41 113 116 98 204 275 273 225 192 213 228 222 225 240 231 358 92 76 106 90 76 223 71 199 285 187 161 156 166 168 169 165 168 169 167 167 168 170 171 172 173 175 175 178 179 182 186 180 177 178 182 179 167 159 160 165 170 171 171 173 158 149 154 147 143 146 144 143 142 140 134 131 131 128 124 122 120 121 122 123 125 124 125 122 119 117 109 105 95 88
341 340 342 6 75 27 83 78 106 103 188 191 242 276 236 218 200 199 240 255 230 172 202 138 64 248 82 132 162 85 204 323 177 168 167 175 173 165 163 170 171 169 170 171 172 173 174 174 176 178 179 179 182 186 189 188 184 184 177 166 159 162 170 173 175 172 171 163 154 154 151 154 153 147 144 145 148 141 137 134 130 130 130 127 126 126 127 129 128 129 129 126 123 120 114 100 95
342 343 359 40 90 122 110 121 130 217 233 173 184 266 246 226 191 172 237 294 274 198 190 175 163 167 60 299 166 173 192 81 161 179 178 173 173 168 165 172 172 171 173 174 175 175 175 176 178 180 181 181 183 187 197 196 184 182 172 165 163 165 175 181 179 174 171 167 161 158 159 160 155 152 149 151 154 147 146 140 139 138 134 133 131 132 132 134 134 134 136 133 131 134 124 110 104
348 350 11 48 53 38 96 160 191 233 238 172 187 247 245 231 193 148 170 284 323 310 159 206 166 117 98 286 121 210 149 155 162 197 186 171 172 171 168 172 173 174 176 177 178 177 176 179 180 182 183 184 186 192 199 196 183 177 171 165 166 168 180 189 180 175 177 172 165 161 164 161 159 164 160 159 156 153 157 150 150 146 141 143 138 136 138 143 142 140 145 144 143 149 139 125 119
356 5 23 75 31 29 81 195 230 216 234 215 215 239 240 221 182 144 166 164 197 284 94 234 191 112 247 115 143 230 62 176 180 217 183 170 172 174 172 174 174 176 179 180 181 178 177 181 183 184 185 186 191 198 198 192 184 177 176 170 170 175 182 188 179 178 186 178 165 161 167 165 166 172 169 167 165 168 170 161 162 158 149 147 141 140 147 154 153 151 154 154 160 163 153 142 136
8 33 47 83 61 35 41 293 271 237 256 264 248 250 239 192 173 147 170 217 256 201 210 231 188 164 221 122 252 247 48 189 187 184 178 172 175 176 176 178 178 179 181 183 184 180 179 184 186 187 188 190 196 203 198 187 185 183 180 172 178 190 187 186 183 188 191 179 172 171 176 176 172 173 177 176 175 181 179 169 171 166 155 152 152 151 155 158 164 171 173 174 180 180 168 158 154
20 33 82 81 75 49 350 275 270 267 253 258 259 251 221 165 165 142 162 226 240 161 226 246 110 132 173 162 253 269 9 187 170 173 178 177 177 179 180 182 185 183 184 186 185 183 182 186 189 192 193 195 202 209 201 189 188 186 183 176 181 193 190 188 188 194 192 183 184 182 184 184 178 176 185 183 182 186 179 175 179 176 166 166 167 160 161 163 174 186 191 195 194 190 184 176 173
22 0 89 80 62 111 218 234 276 281 274 288 285 249 201 148 135 115 128 253 244 130 238 105 108 159 135 272 253 239 347 171 171 173 177 179 179 181 182 184 189 188 188 188 186 186 186 188 193 197 198 200 208 213 207 198 193 189 188 183 183 190 191 193 197 199 193 193 198 190 189 192 185 186 191 187 186 191 188 187 193 196 185 178 177 174 180 177 180 191 198 203 200 197 196 193 193
51 337 67 89 156 185 197 207 280 286 305 319 315 292 169 134 128 181 185 227 215 129 245 203 182 148 107 303 258 298 177 172 179 175 175 178 180 183 184 185 190 192 193 192 189 189 190 191 195 201 203 205 212 214 210 206 201 194 192 186 184 192 196 195 203 206 197 200 207 201 198 197 197 194 193 193 193 194 194 202 207 209 200 189 188 193 195 191 191 195 198 203 203 204 205 206 208
113 125 89 128 193 158 162 178 276 303 330 314 267 312 133 134 182 201 167 223 144 152 250 217 172 113 137 267 281 314 207 180 179 175 176 177 181 184 186 187 190 195 195 195 194 193 194 195 197 202 205 208 214 214 213 213 205 198 193 188 189 197 201 198 205 211 203 205 210 210 205 202 208 200 197 202 204 199 197 208 211 209 211 204 200 201 201 201 202 200 199 202 205 208 210 213 216
142 144 116 173 93 119 169 182 276 286 311 283 290 299 239 153 199 176 139 214 220 181 250 202 151 122 170 270 308 304 198 182 176 175 177 176 181 184 187 190 193 197 197 198 197 198 198 199 200 202 207 210 213 214 217 217 209 202 198 197 196 198 203 202 205 212 211 211 211 213 212 210 213 211 209 212 213 207 202 212 213 208 215 219 216 213 212 212 210 207 205 202 205 210 213 218 221
151 135 93 127 13 345 211 204 182 136 237 271 297 186 252 279 140 140 163 195 238 216 190 132 145 168 202 180 247 274 186 176 175 173 174 175 180 183 189 192 195 199 200 201 200 202 202 202 204 205 208 211 214 217 219 219 212 205 204 206 203 201 204 203 204 212 216 215 215 216 217 218 219 220 222 224 222 213 206 215 218 211 214 223 225 223 224 224 221 218 213 206 207 212 215 219 224
126 110 71 117 241 262 228 208 148 107 235 249 282 157 184 299 123 149 219 177 236 277 83 185 168 126 188 173 257 281 176 169 171 170 170 173 178 183 189 193 197 201 201 203 203 205 206 206 208 208 211 213 217 220 221 220 214 209 209 212 208 205 206 204 206 211 215 217 217 218 219 220 222 222 224 229 228 219 212 216 220 217 215 222 228 228 229 233 231 232 229 218 215 217 218 220 224
82 94 82 155 200 209 207 199 181 155 237 256 315 32 121 302 260 173 257 96 143 305 13 230 230 62 185 223 315 199 164 164 165 165 167 170 175 180 188 194 198 201 203 205 207 208 209 211 212 214 215 217 219 221 222 221 216 214 212 214 211 208 208 207 210 213 215 217 218 219 220 222 223 225 224 223 226 225 221 220 223 223 220 222 230 232 231 235 234 236 241 233 227 226 226 225 226
85 108 131 187 188 197 190 187 200 163 226 244 307 226 138 275 264 156 58 26 32 1 318 306 311 282 219 296 323 153 158 160 163 164 166 170 175 180 188 196 199 202 205 206 209 210 212 214 216 218 220 220 221 222 222 221 219 217 215 216 214 212 212 212 214 215 217 218 220 220 219 221 222 226 227 225 225 226 227 229 231 230 227 226 231 237 235 237 237 236 243 242 238 236 234 232 232
132 126 155 215 194 205 199 179 197 177 226 244 291 209 163 211 212 116 207 311 10 231 277 338 327 282 326 25 138 152 157 160 166 169 170 174 180 185 190 195 200 205 207 209 210 211 214 216 219 220 222 223 222 222 222 222 221 220 218 219 218 217 217 217 218 218 217 217 223 225 222 224 224 226 228 229 230 230 231 233 237 236 232 232 233 238 241 242 241 239 242 244 244 243 241 236 234
172 136 170 230 201 212 227 190 199 202 216 255 315 175 189 241 202 120 178 106 14 227 235 246 265 252 243 89 144 154 159 164 172 176 178 182 187 192 193 195 201 207 209 211 212 213 215 217 220 222 224 224 224 223 222 222 222 222 221 221 222 221 220 221 223 222 220 217 223 227 224 228 232 230 228 231 234 233 235 236 238 238 235 235 235 238 243 245 243 242 244 248 248 245 243 238 235
168 152 192 224 179 194 229 204 209 216 209 191 112 354 334 293 177 145 147 119 300 251 233 211 225 222 184 169 164 163 165 171 180 184 187 190 194 199 199 201 206 209 210 212 215 216 217 218 221 222 224 225 225 224 222 222 223 223 223 223 224 224 224 223 225 226 225 219 221 224 219 224 236 236 230 232 236 235 236 238 239 240 239 238 238 238 243 247 246 243 245 249 252 250 247 241 237
155 205 215 204 154 193 225 198 206 202 177 165 84 333 304 172 168 163 153 162 233 237 226 218 226 202 171 175 171 169 174 180 187 193 196 197 200 203 206 209 210 212 212 214 217 218 218 219 221 222 224 225 226 226 225 225 224 224 224 226 227 227 227 226 227 228 229 223 222 225 224 229 238 236 236 235 238 239 237 238 239 241 242 241 240 241 244 249 249 246 246 249 253 255 253 247 241
197 242 240 209 172 198 209 183 200 170 148 184 191 204 129 89 286 202 168 203 227 222 210 215 231 193 167 164 164 173 184 189 196 199 200 201 204 206 208 209 211 213 214 218 220 221 221 220 221 222 224 225 226 226 227 227 226 226 227 229 229 229 229 228 227 228 231 229 224 225 228 234 232 228 236 239 238 241 240 239 241 242 243 243 243 244 245 248 251 249 248 251 254 257 259 256 250
222 239 258 224 187 196 199 176 187 176 174 198 174 109 155 178 252 179 181 233 238 235 231 219 207 166 154 159 172 186 190 196 203 204 204 205 207 209 210 210 213 214 216 220 222 223 224 222 222 223 224 226 227 227 226 227 227 228 228 230 231 231 233 231 229 228 229 231 228 226 225 229 228 226 237 242 239 242 244 242 242 245 244 243 242 245 248 248 250 251 250 252 254 257 261 262 260
221 224 260 233 192 206 215 184 184 199 195 164 120 208 233 200 180 158 218 245 248 243 236 122 128 140 153 173 185 194 196 205 210 210 211 213 214 215 216 216 216 218 220 222 222 225 226 225 223 223 225 226 227 228 227 227 227 228 228 229 230 232 234 234 234 232 230 230 230 230 228 226 228 233 240 243 241 239 243 246 245 246 247 247 245 243 247 249 249 250 251 253 255 258 261 263 264
220 212 250 262 234 213 204 204 211 227 214 133 143 240 253 211 163 239 243 239 228 170 123 126 132 151 181 188 192 196 199 209 213 214 216 218 219 220 223 222 220 222 224 223 223 226 227 226 225 225 226 227 227 228 228 229 228 228 229 229 231 232 234 235 235 234 233 233 230 230 232 231 230 235 237 238 240 237 242 250 249 248 247 249 250 245 243 247 250 250 251 254 258 260 263 266 267
205 202 249 260 265 282 159 204 217 221 242 180 187 239 261 235 186 250 263 238 168 128 132 159 159 177 196 199 202 202 205 213 212 212 218 220 220 222 224 223 225 227 227 226 227 227 227 227 227 227 227 227 228 229 230 230 230 230 231 231 232 233 235 235 235 235 235 235 233 230 231 234 235 237 236 235 237 238 243 250 249 249 248 248 251 249 245 245 248 251 252 256 260 264 266 268 269
156 171 273 271 270 276 168 197 228 175 241 193 180 250 274 49 189 233 253 236 152 157 174 188 191 204 206 205 209 205 216 222 214 210 217 218 218 221 222 223 227 229 229 231 231 229 228 229 229 229 228 228 229 230 231 231 232 233 233 233 234 234 235 236 237 237 236 236 235 233 231 232 235 237 238 238 237 238 243 247 247 249 250 248 249 251 251 249 249 250 252 255 259 263 265 266 266
141 151 255 283 287 270 208 179 211 172 214 183 144 280 267 214 204 231 240 214 148 169 193 208 213 220 214 212 215 211 225 225 212 216 224 223 222 221 224 228 228 229 233 234 234 233 233 232 232 232 230 229 230 231 232 233 234 234 234 235 235 235 236 237 238 239 240 239 237 236 234 232 234 236 238 239 240 239 241 243 245 248 250 249 249 252 254 255 254 253 253 254 256 260 262 263 265
166 153 211 269 290 267 212 170 175 173 202 170 145 255 247 218 213 228 235 205 189 206 222 224 220 226 225 219 220 220 227 222 212 221 227 228 227 226 229 233 231 231 236 235 235 237 236 235 234 234 232 231 232 232 233 234 235 235 235 236 236 237 237 238 240 241 242 242 240 239 237 235 235 236 237 239 240 240 241 242 244 247 248 248 249 251 252 255 257 256 257 258 258 259 261 262 263
153 171 202 204 237 250 196 164 161 175 221 160 160 241 241 238 236 233 231 196 197 220 233 231 221 224 227 220 221 226 227 222 222 226 230 231 230 229 233 237 235 234 236 236 238 239 237 236 235 234 233 233 233 233 234 234 235 235 236 237 237 238 238 240 241 242 243 243 242 241 240 239 238 238 238 239 240 241 242 243 245 246 247 248 249 249 250 252 254 254 258 261 260 260 261 261 263
151 205 210 195 220 242 317 199 168 179 233 161 174 239 250 243 246 239 224 185 191 215 228 230 227 222 220 221 220 227 232 232 233 235 237 236 234 233 235 238 238 236 238 239 240 240 239 238 235 235 235 235 235 234 234 234 235 236 237 238 239 239 239 240 242 243 244 243 243 242 242 242 241 241 241 240 241 241 242 244 245 246 246 248 250 250 250 251 251 252 257 259 258 259 260 261 264
209 214 217 205 210 219 308 281 187 187 195 177 206 235 249 233 244 242 214 180 188 211 226 231 231 227 221 221 220 226 237 242 241 240 240 239 237 236 237 240 240 240 241 242 240 238 239 239 236 236 237 237 236 236 235 234 235 236 237 239 239 240 240 242 243 244 244 243 243 243 243 243 243 243 243 243 242 243 243 244 245 245 245 247 249 251 251 250 250 251 255 257 256 257 258 260 264
216 213 223 218 201 197 208 265 252 188 181 198 223 231 229 243 266 257 231 195 190 205 224 231 232 234 230 224 228 231 234 241 244 240 238 238 239 240 241 243 243 242 242 243 242 240 240 239 237 238 239 237 237 237 236 235 235 236 237 238 240 241 242 244 245 244 244 243 243 244 244 243 243 244 244 244 244 245 244 245 246 245 245 245 247 249 249 250 251 252 253 254 255 256 257 259 263
207 206 220 222 204 209 211 232 240 158 185 206 212 230 232 241 266 266 255 213 201 218 224 234 242 244 246 240 237 239 236 240 246 243 239 238 241 243 244 245 244 243 243 243 243 241 240 239 239 240 239 237 237 237 236 236 235 235 236 237 239 240 242 243 243 243 243 243 243 244 243 243 244 244 244 244 245 245 245 245 246 245 244 243 244 247 248 249 249 250 250 251 253 256 257 258 262
206 213 225 226 224 240 212 230 245 155 175 218 216 234 231 226 240 254 262 228 206 233 234 245 259 257 257 250 240 242 240 240 247 250 247 242 244 247 246 245 246 245 244 244 243 241 239 239 238 238 239 238 236 234 234 234 233 232 232 234 236 238 240 240 240 241 242 242 243 242 242 242 243 244 244 244 245 245 246 246 246 246 245 242 242 243 245 246 246 247 248 249 251 253 256 258 261
273 244 248 226 223 243 204 212 263 167 189 232 220 237 240 227 228 238 251 245 223 237 240 242 248 246 247 245 243 243 240 246 257 262 261 251 249 250 249 248 247 246 246 244 241 240 239 237 236 237 238 236 232 229 229 230 229 228 227 229 233 236 237 237 238 239 240 241 242 241 241 242 242 243 243 244 244 245 246 246 246 246 245 243 241 242 244 245 246 247 248 250 250 251 254 257 259
263 301 328 245 224 242 211 196 246 187 195 244 223 250 255 238 231 239 251 258 246 231 233 242 242 242 243 242 249 251 249 261 270 270 264 255 253 251 249 248 245 245 247 244 241 242 240 237 236 236 236 233 232 231 229 229 230 228 227 230 233 235 236 236 237 239 239 240 240 240 241 242 242 242 243 243 243 244 244 245 245 245 244 244 243 244 245 245 245 245 246 247 248 249 251 255 255
248 256 272 263 222 247 263 205 240 172 194 250 226 251 262 243 227 232 237 252 253 230 223 237 241 246 247 241 246 253 257 264 265 264 260 253 252 252 249 247 245 246 249 246 244 244 240 237 237 236 233 232 234 233 230 232 233 231 231 234 235 235 237 239 240 242 241 241 240 241 242 242 242 241 241 241 242 243 242 243 244 244 244 244 244 245 245 244 244 243 242 242 244 247 250 251 250
232 229 239 246 196 161 277 266 218 198 222 246 226 251 266 252 233 232 227 242 258 248 229 232 235 239 245 242 238 242 246 253 256 258 259 253 251 252 249 247 247 247 247 247 245 243 239 238 239 237 233 233 234 234 233 235 234 232 234 236 237 238 241 243 245 246 244 243 242 242 242 242 241 240 239 240 241 242 241 242 242 242 243 243 243 244 245 244 243 241 241 240 240 242 245 247 246
224 220 225 238 226 188 259 272 203 250 265 270 312 291 273 247 240 244 231 235 254 256 247 243 238 235 241 244 240 237 238 242 250 254 256 254 249 250 250 251 251 248 247 248 247 244 240 240 241 240 237 236 236 236 236 235 231 230 232 233 235 239 243 243 244 244 241 240 241 242 242 241 239 239 239 238 240 241 241 241 241 241 241 241 242 243 246 246 245 242 240 239 237 237 240 245 246
229 221 219 229 227 219 232 137 135 280 276 245 169 270 274 254 236 236 220 213 235 247 251 249 242 235 235 241 241 239 241 242 245 252 256 257 254 255 257 257 253 249 250 253 253 248 245 246 246 244 240 239 240 239 237 233 228 228 226 224 225 228 233 235 236 238 237 236 239 241 241 240 239 239 238 237 239 240 241 241 240 240 240 239 240 242 245 246 245 244 241 239 239 238 239 243 244
234 210 206 219 220 229 230 183 165 223 257 289 146 223 271 276 249 232 202 207 224 229 242 247 244 238 232 233 237 236 240 244 245 251 254 254 253 254 258 258 253 251 255 258 257 253 251 252 251 248 244 243 243 242 238 232 229 228 225 224 226 225 229 235 238 239 238 238 240 241 240 240 240 239 238 238 238 239 240 240 240 239 239 239 239 240 244 245 244 244 242 240 240 240 236 238 241
235 181 167 197 209 223 224 198 207 233 260 322 167 206 260 273 261 232 179 205 228 225 233 245 245 239 237 236 237 235 235 237 242 248 250 250 246 241 246 253 253 255 259 261 261 259 257 257 255 251 247 246 246 244 239 234 230 229 228 228 229 230 232 239 243 242 241 241 242 242 242 241 241 240 239 239 238 238 239 239 239 238 238 239 238 239 242 244 243 243 242 241 240 239 235 236 241
237 166 150 186 204 214 213 203 225 242 250 247 213 190 239 263 261 232 175 217 233 226 227 240 245 240 238 240 238 237 236 233 236 243 248 251 249 243 243 249 255 258 262 264 265 265 264 262 260 255 250 249 248 246 241 237 235 233 231 229 231 234 236 241 246 245 244 244 242 242 243 242 241 241 241 240 240 239 239 239 238 237 238 238 238 239 242 242 242 242 240 239 238 237 236 237 240
218 154 148 140 170 187 194 205 219 223 236 234 211 192 221 262 258 230 201 234 236 232 228 235 244 243 235 238 239 240 244 242 238 240 245 250 253 253 251 252 257 261 264 265 267 268 268 267 264 259 257 255 252 248 242 239 237 234 232 231 232 236 238 242 245 246 245 244 243 242 242 241 240 239 240 240 239 239 239 239 237 237 238 239 238 239 240 240 240 240 239 238 237 237 237 237 238
134 131 149 30 58 133 173 198 209 217 234 234 216 200 204 253 261 234 216 243 243 235 233 233 239 244 238 237 240 241 244 246 243 240 244 251 256 259 259 258 259 261 263 265 266 268 270 269 267 264 263 260 255 251 245 240 237 234 233 233 234 237 239 240 242 243 242 241 241 242 241 241 238 238 239 239 239 240 239 238 237 238 239 238 238 238 239 239 239 239 238 238 237 237 237 236 238
130 132 162 199 176 163 235 125 204 223 229 228 220 209 203 231 257 242 196 235 242 225 230 234 227 232 234 233 235 236 237 242 244 243 245 251 258 260 260 260 262 264 265 265 266 269 270 269 267 265 264 261 257 253 248 242 238 235 234 235 235 237 239 239 239 241 241 239 239 241 241 241 238 237 237 237 239 240 239 237 236 237 238 237 238 239 239 240 239 239 237 236 236 236 236 235 237
176 159 161 193 199 197 212 197 216 236 240 234 212 205 211 231 254 260 234 227 234 223 222 221 220 227 227 227 231 232 232 237 241 243 245 245 250 256 258 259 262 265 267 268 269 271 272 272 268 262 262 261 258 254 250 245 241 237 236 236 237 238 238 239 239 240 242 240 240 241 240 239 237 235 235 236 240 240 238 236 235 236 236 237 238 239 239 240 238 237 237 236 236 236 235 234 235
191 181 176 197 193 206 218 206 223 235 242 249 194 186 214 231 245 252 249 240 235 236 228 213 218 228 225 225 231 234 234 234 236 240 245 246 245 248 252 257 260 262 266 270 273 275 275 274 270 264 264 264 260 257 253 248 244 241 239 238 238 238 238 238 239 240 242 242 241 241 241 240 238 236 236 238 242 241 238 237 236 237 237 238 238 239 239 239 238 237 237 237 237 237 236 234 236
194 187 183 201 198 212 218 207 225 237 251 260 171 174 205 198 207 236 249 249 233 234 234 216 218 231 234 245 249 245 243 238 237 240 243 245 246 247 250 256 261 264 269 273 275 276 275 274 273 268 268 269 266 262 258 252 249 246 242 240 240 239 238 239 239 240 241 242 242 242 242 241 240 239 240 242 243 242 240 239 238 238 239 239 238 239 239 238 237 236 237 238 238 238 237 235 237
202 181 191 211 209 215 236 223 180 195 297 280 183 214 221 214 257 275 279 291 250 242 239 226 231 233 232 254 253 242 240 237 237 240 245 248 248 251 254 259 267 273 276 276 275 276 274 274 274 272 272 272 270 267 262 257 254 250 245 243 241 240 239 239 239 240 241 242 243 242 242 242 242 242 243 243 243 243 241 240 239 239 240 239 239 239 239 238 237 235 236 237 238 239 237 235 237
181 193 203 213 200 203 241 266 183 195 266 236 188 241 274 268 281 276 257 250 250 261 257 237 241 239 227 240 245 241 237 235 235 237 244 249 252 257 261 267 274 277 277 276 277 278 277 276 276 274 274 273 270 268 265 261 257 253 249 246 243 241 240 239 240 240 241 242 243 243 243 243 243 244 244 244 243 243 242 240 240 240 241 240 239 239 238 238 236 234 235 237 238 239 237 236 237
160 202 197 155 65 138 192 255 243 244 256 245 203 221 231 228 253 268 255 243 231 240 247 242 251 250 238 240 245 246 243 239 239 240 246 254 262 269 271 273 272 272 274 276 280 284 285 283 280 277 276 274 271 269 266 264 259 254 252 249 245 243 241 240 241 241 242 242 243 244 243 243 243 243 244 244 243 242 241 241 240 240 241 240 239 239 238 237 235 234 235 237 239 239 237 236 238
151 203 183 156 168 187 185 216 228 227 237 244 236 234 226 213 229 270 265 255 237 221 226 244 251 247 242 245 249 251 249 247 245 245 255 267 269 267 265 266 269 272 276 279 284 289 289 290 289 284 282 280 276 272 268 265 262 258 255 252 249 245 243 242 242 242 242 242 243 244 243 243 244 243 243 243 242 241 240 239 239 239 239 239 239 239 238 236 234 233 234 237 239 238 236 236 238
268 193 173 181 225 202 195 204 224 227 229 238 241 240 232 213 209 226 248 257 254 210 191 234 245 241 238 239 244 243 241 249 248 236 249 253 252 255 256 261 270 276 281 286 290 293 294 297 298 295 293 291 285 277 270 267 264 260 258 256 252 249 245 243 242 242 241 241 243 243 243 244 244 244 243 242 242 240 239 238 238 238 238 238 238 238 237 236 234 233 234 236 238 237 235 236 238
192 179 176 191 207 191 185 209 227 230 228 237 245 242 232 213 194 205 232 255 261 226 190 213 230 235 237 236 241 244 244 258 254 222 231 238 242 255 260 265 273 278 285 291 294 298 301 304 305 304 302 299 293 286 278 271 267 263 260 257 255 252 249 246 244 243 241 243 244 244 244 245 245 244 243 242 242 240 240 238 237 237 237 237 237 236 236 235 233 233 234 236 237 237 235 236 238
190 191 188 191 195 185 211 227 219 218 222 226 244 249 247 244 214 203 221 245 265 240 204 218 229 235 245 248 247 247 241 252 249 229 235 247 253 266 273 276 278 281 288 294 299 305 309 311 312 310 307 303 300 295 288 280 274 267 262 260 257 254 251 248 246 244 243 243 244 244 245 244 244 245 243 242 241 241 240 239 237 237 236 236 236 236 236 234 232 233 234 236 237 236 236 236 237